Regional Weather Roundup
Issued by NWS

Home | Current Version | Previous Version | Graphics & Text | Print | Product List | Glossary On
Versions: 1 2 3 4 5 6 7 8 9 10 11 12 13 14 15 16 17 18 19 20 21 22 23 24 25 26 27 28 29 30 31 32 33 34 35 36 37 38 39 40 41 42 43 44 45 46 47 48 49 50
965
ASUS43 KBIS 222302
RWRND

NORTH DAKOTA REGIONAL WEATHER ROUNDUP
NATIONAL WEATHER SERVICE BISMARCK ND
600 PM CDT THU JUN 22 2017

NOTE: "FAIR" INDICATES FEW OR NO CLOUDS BELOW 12,000 FEET WITH NO
SIGNIFICANT WEATHER AND/OR OBSTRUCTIONS TO VISIBILITY.


NDZ001>003-009>011-017-230000-
NORTHWEST NORTH DAKOTA

CITY           SKY/WX    TMP DP  RH WIND       PRES   REMARKS
WILLISTON      PTSUNNY   64  44  48 W30G41    29.87R
MINOT          CLOUDY    69  37  30 W31G44    29.75S
MINOT AFB      CLOUDY    66  44  44 NW32G43   29.73S
$$

NDZ018>021-031>035-040>046-230000-
SOUTHWEST NORTH DAKOTA

CITY           SKY/WX    TMP DP  RH WIND       PRES   REMARKS
BISMARCK       PTSUNNY   75  31  19 NW20G35   29.81R
DICKINSON      PTSUNNY   71  23  16 NW28G40   29.85F
GARRISON         N/A     70  34  26 NW31G44   29.78S
HETTINGER ARPT CLOUDY    72  29  20 W26G33    29.91R
$$

NDZ004>008-012>016-024-026-027-054-230000-
NORTHEAST NORTH DAKOTA

CITY           SKY/WX    TMP DP  RH WIND       PRES   REMARKS
GRAND FORKS    PTSUNNY   75  39  27 W23G31    29.67F
GRND FRKS AFB  PTSUNNY   72  38  28 NW23G31   29.68F
DEVILS LAKE    MOSUNNY   70  39  32 W26G38    29.70S
$$

NDZ022-023-025-028>030-036>039-047>053-230000-
SOUTHEAST NORTH DAKOTA

CITY           SKY/WX    TMP DP  RH WIND       PRES   REMARKS
FARGO          MOSUNNY   77  37  23 W21G36    29.71S
JAMESTOWN      MOSUNNY   73  36  25 NW18G25   29.76F
$$





USA.gov is the U.S. government's official web portal to all federal, state and local government web resources and services.